Location: *
(44.1392°N, 4.8079°E)
Time: 20:43:25
(UTC+00:00)

IRIDIUM 104 - Pass Details

Date: 21 June 2021
Orbit: 776 x 779 km, 86.4° (Epoch: 02 August)

Event Time Altitude Azimuth Distance (km) Brightness Sun altitude
Rises 02:04:09 0° 356° (N) 3,272 8.5 -15.1°
Reaches altitude 10° 02:06:30 10° 356° (N) 2,339 7.6 -14.8°
Maximum altitude 02:11:45 85° 269° (W) 787 4.3 -14.3°
Enters shadow 02:16:15 14° 181° (S) 2,045 6.0 -13.8°
